WetterOnline ( https://www.wetteronline.de )

Wetter aktuell Würselen

Aktuelles Wetter: Aachen-Orsbach (231m)

6-stündlich | Neueste Meldungen
Ortszeit Temperatur Wetter
So, 25.08. 14:00 27.8° C leicht bewölkt
So, 25.08. 8:00 18.2° C fast wolkenlos
So, 25.08. 2:00 18.3° C wolkenlos
Sa, 24.08. 20:00 26.3° C wolkenlos
Sa, 24.08. 14:00 28.0° C wolkenlos
Sa, 24.08. 8:00 17.5° C wolkenlos
Sa, 24.08. 2:00 17.3° C wolkenlos
Fr, 23.08. 20:00 24.7° C leicht bewölkt
Ortszeit Temperatur Wetter
So, 25.08. 14:00 27.8° C leicht bewölkt
So, 25.08. 13:50 27.8° C wolkig
So, 25.08. 13:40 28.0° C wolkig
So, 25.08. 13:30 27.4° C wolkig
So, 25.08. 13:20 27.4° C wolkig
So, 25.08. 13:10 27.5° C wolkig
So, 25.08. 13:00 28.2° C leicht bewölkt
So, 25.08. 12:30 27.5° C leicht bewölkt
So, 25.08. 12:00 27.2° C leicht bewölkt
So, 25.08. 11:30 26.1° C wolkig
So, 25.08. 11:00 26.0° C leicht bewölkt
Ortszeit Relative Feuchte Sichtweite
So, 25.08. 14:00 41% -
So, 25.08. 8:00 63% 50 km
So, 25.08. 2:00 61% 45 km
Sa, 24.08. 20:00 36% 60 km
Sa, 24.08. 14:00 32% >70 km
Sa, 24.08. 8:00 59% 60 km
Sa, 24.08. 2:00 71% 30 km
Fr, 23.08. 20:00 36% 55 km
Ortszeit Relative Feuchte Sichtweite
So, 25.08. 14:00 41% -
So, 25.08. 13:50 41% -
So, 25.08. 13:40 42% -
So, 25.08. 13:30 42% 55 km
So, 25.08. 13:20 42% -
So, 25.08. 13:10 41% -
So, 25.08. 13:00 41% 55 km
So, 25.08. 12:30 39% 45 km
So, 25.08. 12:00 40% 50 km
So, 25.08. 11:30 45% 55 km
So, 25.08. 11:00 45% 65 km
Ortszeit Niederschlagsmenge Niederschlagsart
So, 25.08. 14:00 0.0 l/m2 in 6 Std. -
So, 25.08. 8:00 0.0 l/m2 in 12 Std. -
So, 25.08. 2:00 0.0 l/m2 in 6 Std. -
Sa, 24.08. 20:00 0.0 l/m2 in 12 Std. -
Sa, 24.08. 14:00 0.0 l/m2 in 6 Std. -
Sa, 24.08. 8:00 0.0 l/m2 in 12 Std. -
Sa, 24.08. 2:00 0.0 l/m2 in 6 Std. -
Fr, 23.08. 20:00 0.0 l/m2 in 12 Std. -
Ortszeit Niederschlagsmenge Niederschlagsart
So, 25.08. 14:00 0.0 l/m2 in 1 Std. -
So, 25.08. 13:50 keine Meldung -
So, 25.08. 13:40 keine Meldung -
So, 25.08. 13:30 0.0 l/m2 in 1 Std. -
So, 25.08. 13:20 keine Meldung -
So, 25.08. 13:10 keine Meldung -
So, 25.08. 13:00 0.0 l/m2 in 1 Std. -
So, 25.08. 12:30 0.0 l/m2 in 1 Std. -
So, 25.08. 12:00 0.0 l/m2 in 1 Std. -
So, 25.08. 11:30 0.0 l/m2 in 1 Std. -
So, 25.08. 11:00 0.0 l/m2 in 1 Std. -
Ortszeit Stärke Spitze Richtung
km/h Bft. km/h Grad Sektor
So, 25.08. 14:00 13 3 20 350° N
So, 25.08. 8:00 7 2 14 110° O
So, 25.08. 2:00 7 2 19 110° O
Sa, 24.08. 20:00 14 3 32 70° O
Sa, 24.08. 14:00 13 3 31 70° O
Sa, 24.08. 8:00 9 2 13 110° O
Sa, 24.08. 2:00 7 2 22 110° O
Fr, 23.08. 20:00 11 2 30 50° NO
Ortszeit Stärke Spitze Richtung
km/h Bft. km/h Grad Sektor
So, 25.08. 14:00 13 3 20 350° N
So, 25.08. 13:50 13 3 - 350° N
So, 25.08. 13:40 9 2 - 300° NW
So, 25.08. 13:30 9 2 19 260° W
So, 25.08. 13:20 9 2 - 260° W
So, 25.08. 13:10 7 2 - 70° O
So, 25.08. 13:00 7 2 18 80° O
So, 25.08. 12:30 7 2 18 60° NO
So, 25.08. 12:00 6 1 13 80° O
So, 25.08. 11:30 7 2 11 290° W
So, 25.08. 11:00 7 2 11 320° NW
Ortszeit Untergrenze Bedeckung Gattung
total tief tief mittel hoch
So, 25.08. 14:00 9000 m 8/8 0/8 - - -
So, 25.08. 8:00 10500 m 1/8 0/8 - - -
So, 25.08. 2:00 - 0/8 0/8 - - -
Sa, 24.08. 20:00 - 0/8 0/8 - - -
Sa, 24.08. 14:00 - 0/8 0/8 - - -
Sa, 24.08. 8:00 - 0/8 0/8 - - -
Sa, 24.08. 2:00 - 0/8 0/8 - - -
Fr, 23.08. 20:00 9000 m 8/8 0/8 - - -
Ortszeit Bedeckungsgrad in Achtel und Wolkenuntergrenze
So, 25.08. 14:00 3(9000m) 8(9000m) 8(9000m)
So, 25.08. 13:50 3(9000m) 8(9000m) 8(9000m)
So, 25.08. 13:40 7(9000m) 8(9000m)
So, 25.08. 13:30 8(9000m) 8(9000m)
So, 25.08. 13:20 8(9000m) 8(9000m)
So, 25.08. 13:10 8(9000m) 8(9000m)
So, 25.08. 13:00 8(9000m) 8(10500m)
So, 25.08. 12:30 6(9000m)
So, 25.08. 12:00 6(9000m) 7(9000m)
So, 25.08. 11:30 8(9000m)
So, 25.08. 11:00 8(9000m) 8(9000m) 8(10500m)
Ortszeit Luftdruck NN (hPa) Tendenz (hPa in 3 Std.)
So, 25.08. 14:00 1018 - 0,6
So, 25.08. 8:00 1019 + 0,2
So, 25.08. 2:00 1019 - 0,3
Sa, 24.08. 20:00 1018 - 0,7
Sa, 24.08. 14:00 1020 - 1,2
Sa, 24.08. 8:00 1022 - 0,1
Sa, 24.08. 2:00 1022 - 0,7
Fr, 23.08. 20:00 1022 - 0,9
Ortszeit Luftdruck NN (hPa) Tendenz (hPa in 3 Std.)
So, 25.08. 14:00 1018 - 0,6
So, 25.08. 13:50 1018 keine Meldung
So, 25.08. 13:40 1018 keine Meldung
So, 25.08. 13:30 1018 - 0,4
So, 25.08. 13:20 1018 keine Meldung
So, 25.08. 13:10 1018 keine Meldung
So, 25.08. 13:00 1018 - 0,1
So, 25.08. 12:30 1019 + 0,2
So, 25.08. 12:00 1019 + 0,5
So, 25.08. 11:30 1019 + 0,7
So, 25.08. 11:00 1019 + 1,0
Ortszeit Schneehöhe (cm)
So, 25.08. 14:00 -
So, 25.08. 8:00 -
So, 25.08. 2:00 -
Sa, 24.08. 20:00 -
Sa, 24.08. 14:00 -
Sa, 24.08. 8:00 -
Sa, 24.08. 2:00 -
Fr, 23.08. 20:00 -
Ortszeit Schneehöhe (cm)
So, 25.08. 14:00 -
So, 25.08. 13:50 -
So, 25.08. 13:40 -
So, 25.08. 13:30 -
So, 25.08. 13:20 -
So, 25.08. 13:10 -
So, 25.08. 13:00 -
So, 25.08. 12:30 -
So, 25.08. 12:00 -
So, 25.08. 11:30 -
So, 25.08. 11:00 -
Link zu dieser Seite / Seite empfehlen

Das Wetter in ...